Regional Weather Roundup
Issued by NWS

Home | Current Version | Previous Version | Graphics & Text | Print | Product List | Glossary On
Versions: 1 2 3 4 5 6 7 8 9 10 11 12 13 14 15 16 17 18 19 20 21 22 23 24 25 26 27 28 29 30 31 32 33 34 35 36 37 38 39 40 41 42 43 44 45 46 47 48 49 50
000
ASUS43 KOAX 290602
RWRNE

WEATHER ROUNDUP FOR NEBRASKA
NATIONAL WEATHER SERVICE OMAHA NE
100 AM CDT MON MAY 29 2017

NOTES: SATELLITE DATA IS BEING USED TO AUGMENT CLOUD COVER ABOVE
       12000 FEET.
       "FAIR" INDICATES FEW OR NO CLOUDS BELOW 12,000 FEET WITH NO
       SIGNIFICANT WEATHER AND/OR OBSTRUCTIONS TO VISIBILITY.

  * THESE STATIONS DO NOT REPORT WEATHER SUCH AS RAIN...SNOW OR FOG.

NEZ001>004-019>022-054>056-290700-
NEBRASKA PANHANDLE

CITY           SKY/WX    TMP DP  RH WIND       PRES   REMARKS
SCOTTSBLUFF    PTCLDY    51  45  79 CALM      30.19F
6HR MIN TEMP:  50; 6HR MAX TEMP:  69; 6HR PCP: TRACE;

ALLIANCE       CLEAR     48  45  89 W12       30.14S
6HR MIN TEMP:  44; 6HR MAX TEMP:  63; 6HR PCP:  0.01;

CHADRON        CLEAR     53  45  74 W15       30.12R
6HR MIN TEMP:  50; 6HR MAX TEMP:  62; 6HR PCP:  0.08;

GORDON         FAIR      50  45  82 W12       30.09S
6HR MIN TEMP:  49; 6HR MAX TEMP:  66; 6HR PCP:  0.01;

KIMBALL        CLEAR     48  43  84 NW8       30.24F
SIDNEY         CLEAR     46  42  86 SW7       30.20F
6HR MIN TEMP:  43; 6HR MAX TEMP:  66; 6HR PCP: TRACE;

$$

NEZ057>060-069>072-079>082-290700-
SOUTHWEST NEBRASKA

CITY           SKY/WX    TMP DP  RH WIND       PRES   REMARKS
NORTH PLATTE   PTCLDY    51  47  86 W8        30.07F
6HR MIN TEMP:  50; 6HR MAX TEMP:  75; 6HR PCP:  0.02;

IMPERIAL       CLEAR     53  44  71 W6        30.13F
6HR MIN TEMP:  52; 6HR MAX TEMP:  75; 6HR PCP: TRACE;

LEXINGTON      CLEAR     53  47  81 W8        30.04F
MCCOOK         CLEAR     55  47  74 W7        30.09R
6HR MIN TEMP:  55; 6HR MAX TEMP:  78;

OGALLALA       CLEAR     51  46  82 W6        30.12R
$$

NEZ005>010-023>029-035>040-094-290700-
NORTH CENTRAL NEBRASKA

CITY           SKY/WX    TMP DP  RH WIND       PRES   REMARKS
VALENTINE      CLEAR     52  46  80 NW9       30.02S
6HR MIN TEMP:  52; 6HR MAX TEMP:  73; 6HR PCP:  0.04;

AINSWORTH      CLOUDY    54  49  81 W13       30.01R
BROKEN BOW     MOCLDY    58  45  62 W14       30.01F
6HR MIN TEMP:  53; 6HR MAX TEMP:  75;

O`NEILL        PTCLDY    59  44  57 W14       29.95F
ORD            PTCLDY    54  45  71 N9        29.98S
6HR MIN TEMP:  54; 6HR MAX TEMP:  72;

$$

NEZ041-046>049-061>064-073>077-083>087-290700-
SOUTH CENTRAL NEBRASKA

CITY           SKY/WX    TMP DP  RH WIND       PRES   REMARKS
GRAND ISLAND   CLEAR     58  47  66 W10       29.98F
6HR MIN TEMP:  58; 6HR MAX TEMP:  77;

AURORA         CLEAR     58  45  61 W9        29.96S
HASTINGS       CLEAR     59  46  62 NW9       29.99F
6HR MIN TEMP:  59; 6HR MAX TEMP:  76;

HEBRON         PTCLDY    61  51  68 CALM      29.95S
HOLDREGE       CLEAR     56  47  73 NW7       30.03F
KEARNEY *      CLEAR     59  43  55 W7        30.02S
$$

NEZ011>018-030>034-042>045-290700-
NORTHEAST NEBRASKA

CITY           SKY/WX    TMP DP  RH WIND       PRES   REMARKS
NORFOLK        CLEAR     60  42  51 W7        29.91F
6HR MIN TEMP:  58; 6HR MAX TEMP:  75;

ALBION         MOCLDY    58  45  60 NW5       29.94F
BLAIR          CLEAR     64  40  41 W7        29.88S
FREMONT        CLEAR     58  45  62 W8        29.89S
TEKAMAH        MOCLDY    64  41  42 W10       29.87R
6HR MIN TEMP:  60; 6HR MAX TEMP:  79;

WAYNE          CLEAR     62  43  50 NW10      29.91S
$$

NEZ050>053-065>068-078-088>093-290700-
SOUTHEAST NEBRASKA

CITY           SKY/WX    TMP DP  RH WIND       PRES   REMARKS
LINCOLN        CLEAR     61  46  57 W5        29.91S
6HR MIN TEMP:  56; 6HR MAX TEMP:  79;

OMAHA EPPLEY   PTCLDY    58  47  66 SE3       29.86F
6HR MIN TEMP:  58; 6HR MAX TEMP:  77;

BEATRICE       CLEAR     57  47  70 SW3       29.92S
FALLS CITY     CLEAR     58  46  64 SW5       29.90F
6HR MIN TEMP:  58; 6HR MAX TEMP:  79;

NEBRASKA CITY  CLEAR     59  42  52 SW7       29.89F
PLATTSMOUTH    CLEAR     64  41  43 SW6       29.88F
$$

NEZ044-045-051>053-067-290700-
OMAHA AREA

CITY           SKY/WX    TMP DP  RH WIND       PRES   REMARKS
OMAHA EPPLEY   PTCLDY    58  47  66 SE3       29.86F
6HR MIN TEMP:  58; 6HR MAX TEMP:  77;

BLAIR          CLEAR     64  40  41 W7        29.88S
FREMONT        CLEAR     58  45  62 W8        29.89S
MILLARD        CLEAR     58  48  70 CALM      29.88S
OFFUTT AFB     CLEAR     53  47  81 CALM      29.86F
PLATTSMOUTH    CLEAR     64  41  43 SW6       29.88F
WAHOO          FAIR      63  41  44 W14       29.90R
$$




USA.gov is the U.S. government's official web portal to all federal, state and local government web resources and services.